This is the latest recevied weather packets stored in our database for station/object W5ADC. If no packets are shown the sender has not sent any weather packets the latest 10 day(s).
| Time | Temp. | Humidity | Pressure | Rain* | Wind** | Luminosity | Snow |
|---|---|---|---|---|---|---|---|
| 1777854291 | 25.56° C | 35% | 1011.7 hPa | 0 mm | - | 44 W/m² | - |
| 1777853988 | 25.56° C | 35% | 1011.6 hPa | 0 mm | - | 51 W/m² | - |
| 1777853686 | 25.56° C | 35% | 1011.4 hPa | 0 mm | - | 60 W/m² | - |
| 1777853382 | 25.56° C | 35% | 1011.8 hPa | 0 mm | - | 69 W/m² | - |
| 1777853079 | 26.11° C | 35% | 1011.8 hPa | 0 mm | - | 79 W/m² | - |
| 1777852777 | 26.11° C | 35% | 1011.7 hPa | 0 mm | - | 90 W/m² | - |
| 1777852474 | 26.11° C | 36% | 1011.8 hPa | 0 mm | - | 103 W/m² | - |
| 1777852171 | 26.11° C | 36% | 1011.8 hPa | 0 mm | - | 116 W/m² | - |
| 1777851869 | 26.67° C | 34% | 1011.7 hPa | 0 mm | - | 130 W/m² | - |
| 1777851567 | 26.67° C | 34% | 1011.8 hPa | 0 mm | - | 143 W/m² | - |
| 1777851263 | 26.11° C | 34% | 1011.7 hPa | 0 mm | - | 153 W/m² | - |
| 1777850960 | 26.11° C | 34% | 1012.2 hPa | 0 mm | - | 135 W/m² | - |
| 1777850657 | 26.11° C | 33% | 1012 hPa | 0 mm | - | 129 W/m² | - |
| 1777850354 | 26.67° C | 33% | 1012 hPa | 0 mm | - | 131 W/m² | - |
| 1777850052 | 26.67° C | 32% | 1011.9 hPa | 0 mm | - | 192 W/m² | - |
| 1777849748 | 27.22° C | 33% | 1011.9 hPa | 0 mm | - | 195 W/m² | - |
| 1777849444 | 27.22° C | 33% | 1012.1 hPa | 0 mm | - | 228 W/m² | - |
| 1777849142 | 27.22° C | 33% | 1012 hPa | 0 mm | - | 245 W/m² | - |
| 1777848838 | 26.67° C | 33% | 1012 hPa | 0 mm | - | 257 W/m² | - |
| 1777848534 | 26.67° C | 33% | 1012 hPa | 0 mm | - | 273 W/m² | - |
| 1777848231 | 27.22° C | 33% | 1012 hPa | 0 mm | - | 295 W/m² | - |
| 1777847929 | 26.67° C | 33% | 1011.9 hPa | 0 mm | - | 314 W/m² | - |
| 1777847627 | 27.78° C | 32% | 1012.1 hPa | 0 mm | - | 322 W/m² | - |
| 1777847322 | 27.78° C | 33% | 1012.3 hPa | 0 mm | - | 339 W/m² | - |
| 1777847021 | 27.22° C | 32% | 1012.4 hPa | 0 mm | - | 354 W/m² | - |
* Rain latest hour (hover to see other rain measurements)
** Current wind speed in m/s (hover to see current wind gust speed)